Wetbulb
53.94 54.07 54.11 54.06 54.03 54.23 54.39 54.41 54.44 54.63 54.70 54.70 54.59 54.30 54.40 54.14 53.10 49.65 44.70 50.36 51.95 53.67 50.65 46.40 45.42 45.27 44.33 42.04 43.51 43.08 34.10 31.77 33.52 33.94 35.45 39.93 38.13 41.83 43.49 41.54 43.23 45.33 45.63 47.51 49.27
53.66 53.64 53.61 53.58 53.68 53.92 54.13 54.12 54.11 54.54 54.67 54.49 54.25 54.12 53.82 53.49 49.03 44.96 51.59 53.77 52.79 52.77 46.49 43.44 40.96 42.64 39.27 38.90 41.40 38.09 33.03 33.06 36.57 37.14 36.06 38.39 38.45 39.30 38.76 39.31 40.03 41.67 44.95 46.75 49.24
53.21 53.14 53.03 53.24 53.52 53.80 53.83 53.91 54.09 54.41 54.55 53.97 53.68 53.85 53.15 52.17 43.81 42.97 52.83 53.32 53.13 51.19 47.32 45.26 43.44 40.47 36.38 38.70 38.32 37.10 32.39 36.40 36.81 38.30 38.95 37.46 37.05 39.14 36.74 35.31 38.69 38.77 41.49 43.78 44.55
52.97 52.73 52.77 52.98 53.34 53.72 53.66 53.94 54.32 54.22 53.66 53.93 52.99 53.14 52.23 48.72 33.31 45.91 52.67 53.45 53.23 49.90 46.04 42.98 40.65 36.59 34.31 33.39 37.54 32.66 36.02 36.56 37.24 38.18 36.98 35.26 37.76 35.93 37.13 37.78 41.09 41.70 42.41 42.60 42.41
52.79 52.39 52.54 52.86 53.23 53.39 53.45 54.10 53.95 53.23 52.76 53.44 52.65 51.94 47.22 39.84 39.76 48.78 51.03 49.86 48.74 46.36 42.76 40.79 38.09 36.74 32.88 34.54 35.44 33.47 34.93 36.47 37.34 37.12 36.86 37.32 35.30 35.69 36.38 39.83 41.36 41.55 41.38 41.32 41.90
52.53 52.28 52.41 52.78 53.01 53.22 53.51 53.77 52.54 52.02 53.28 52.44 51.56 51.04 43.62 35.79 46.90 49.63 48.37 47.57 46.41 44.32 42.29 41.80 38.99 39.31 35.69 34.52 33.24 35.20 34.59 35.08 36.25 36.12 36.65 34.28 34.90 35.92 37.08 40.19 39.74 40.14 40.25 41.22 41.66
52.25 52.17 52.37 52.59 52.73 52.96 53.29 52.19 51.56 52.25 52.04 51.41 51.83 48.50 41.51 39.20 48.64 49.41 46.70 45.29 45.61 44.32 40.82 42.92 42.63 38.47 37.50 33.60 37.42 35.53 31.28 33.72 34.60 35.60 34.70 36.31 31.18 32.17 38.57 39.67 38.55 39.33 40.35 40.75 41.43
52.12 52.05 52.22 52.21 52.51 52.74 52.27 51.06 50.30 51.20 51.44 52.17 51.03 46.56 38.17 46.61 49.57 45.33 45.62 43.56 44.95 44.97 43.16 44.04 43.20 39.58 36.79 37.93 34.64 30.87 31.22 26.43 32.79 34.21 35.45 33.70 27.03 35.45 39.25 38.40 37.65 38.99 39.90 40.71 41.30
51.95 52.08 52.00 51.89 52.29 51.52 50.67 49.39 48.63 50.26 50.85 52.10 46.29 43.60 36.64 45.90 41.78 44.50 44.30 40.35 41.79 42.78 43.01 43.05 41.30 36.69 35.67 31.03 28.82 30.03 23.96 25.80 28.54 34.17 33.55 32.33 28.93 35.21 38.34 37.50 36.80 38.24 39.50 40.24 41.08
51.90 51.89 51.83 51.67 51.18 50.15 49.04 48.08 46.52 46.51 44.80 47.48 43.31 39.86 40.53 37.11 41.64 42.26 44.21 42.06 38.79 39.98 37.78 37.53 36.98 32.32 32.52 29.37 21.28 22.79 23.12 25.52 25.47 31.02 32.24 29.89 29.47 33.68 36.86 36.88 36.67 37.89 38.93 40.03 40.81
51.53 51.54 51.57 51.43 49.90 48.78 45.85 43.81 42.22 40.25 41.33 36.37 36.19 36.12 37.82 41.72 43.06 40.42 41.52 39.65 39.00 36.13 30.70 33.39 28.90 26.53 28.15 29.48 28.71 26.97 25.75 24.45 28.27 32.08 29.58 28.87 29.40 32.31 36.24 36.37 35.95 36.97 38.07 38.96 40.04
51.28 51.35 51.37 51.02 48.45 46.99 45.58 40.06 38.35 39.30 35.43 37.05 37.05 37.73 39.80 40.49 33.97 38.08 41.33 34.34 32.99 29.29 32.28 30.19 26.34 30.00 31.09 29.82 28.30 27.56 25.36 25.13 29.57 30.83 29.59 29.02 28.47 33.30 33.63 33.24 34.51 35.51 36.92 38.40 39.76
51.08 51.16 51.05 50.22 47.72 44.37 40.98 40.02 44.03 41.95 36.06 34.45 36.84 36.70 36.75 37.25 33.06 34.20 37.03 34.17 30.89 28.87 28.54 25.05 28.27 31.04 29.04 28.22 25.61 25.66 24.04 24.83 24.49 27.96 29.52 27.92 27.08 29.06 32.18 33.59 33.15 33.27 33.91 35.57 37.17
50.88 50.93 50.52 48.89 43.89 42.11 39.05 41.52 43.58 43.36 34.26 31.10 33.57 35.11 36.88 36.03 31.77 37.52 38.18 33.60 31.55 26.92 27.99 26.85 30.49 28.32 27.91 26.10 26.52 20.52 27.98 24.96 23.38 22.08 18.68 27.86 18.27 25.09 27.47 28.76 28.88 29.68 30.94 32.10 34.10
50.76 50.62 49.57 46.52 42.60 39.28 40.45 41.98 43.76 40.19 29.15 33.13 32.50 38.82 36.25 33.65 32.72 35.03 38.35 34.30 27.70 27.38 27.40 25.31 26.70 26.05 24.31 25.91 27.84 22.67 27.08 24.06 23.24 21.31 22.73 23.30 20.73 21.07 25.17 21.70 22.56 25.63 27.34 29.69 32.52
50.49 50.23 47.98 44.99 43.36 41.24 41.78 42.47 41.21 34.25 25.60 28.75 31.68 29.64 30.18 31.78 30.98 33.37 33.07 36.06 33.30 27.78 29.11 27.34 31.09 29.05 28.17 29.31 28.77 28.08 22.89 24.15 26.04 24.22 17.50 22.36 21.73 15.78 17.85 18.82 20.68 22.91 24.54 28.03 31.93
50.21 48.90 46.11 44.14 40.31 41.64 42.09 38.93 34.59 27.41 30.63 27.73 25.68 28.97 27.41 27.00 28.27 29.10 27.62 27.13 23.72 20.17 21.20 24.78 26.52 30.17 30.36 25.45 28.05 24.68 19.26 14.19 15.06 16.39 16.11 23.15 21.39 17.73 19.79 20.05 21.20 18.92 21.62 35.78 34.03
49.41 45.18 44.78 42.44 42.16 41.05 38.37 37.27 27.37 21.41 22.55 27.46 27.24 27.23 24.51 25.93 26.79 26.76 26.36 24.64 28.15 25.44 20.72 17.18 17.74 25.06 29.56 25.30 20.60 21.06 17.94 11.67 5.50 9.74 13.31 22.95 13.46 19.28 20.56 21.41 21.83 19.95 32.57 36.74 37.29
44.83 43.20 43.46 42.59 41.31 39.57 38.05 31.29 31.43 23.94 25.69 24.96 26.68 24.20 24.65 25.00 24.70 25.59 24.86 23.96 26.39 27.50 19.42 18.42 19.05 27.88 28.62 28.91 24.48 19.08 15.16 20.38 12.89 16.20 14.46 17.17 17.27 23.22 19.89 16.90 17.82 16.63 30.87 33.82 36.08
43.07 40.42 39.90 39.61 38.67 37.95 35.91 29.18 25.29 26.52 27.60 25.60 23.39 22.42 20.36 22.76 23.35 23.51 25.11 26.25 25.68 28.74 28.59 22.77 16.50 25.45 26.92 28.51 26.40 21.20 22.43 13.26 15.95 7.87 8.27 14.34 10.88 9.02 10.74 11.04 13.11 14.18 21.54 30.44 33.19
39.78 38.66 39.74 38.28 38.03 37.74 32.74 27.32 22.48 27.08 29.04 25.24 22.20 21.40 22.09 22.01 22.32 21.70 23.09 27.56 28.23 27.32 28.84 26.26 20.67 23.07 26.06 22.34 18.62 17.71 14.76 16.34 15.79 14.84 9.50 9.15 10.94 14.26 10.78 11.88 11.36 14.42 20.63 28.49 30.05
37.69 34.48 39.21 37.53 34.44 23.93 29.15 22.18 27.21 27.41 29.55 28.00 27.50 24.53 22.54 21.26 21.57 21.11 22.04 25.20 30.13 28.92 23.97 25.84 23.06 18.81 18.80 25.90 27.49 21.33 16.06 15.35 12.99 8.81 12.00 12.02 11.73 16.05 13.87 13.31 13.86 13.96 19.12 25.30 28.23
37.19 36.87 39.09 38.36 33.44 29.45 22.34 25.19 27.51 26.67 27.38 27.07 26.15 27.44 22.78 22.15 19.40 19.88 24.01 29.35 29.77 28.53 25.74 27.81 23.67 19.28 19.73 22.74 25.80 18.82 17.46 16.45 15.93 15.11 7.02 8.46 12.45 17.49 14.40 12.82 13.41 13.72 17.50 21.91 24.82
35.57 33.63 35.22 34.12 31.07 29.21 24.89 23.84 23.52 28.19 27.53 28.79 27.83 28.23 21.38 19.07 20.77 20.25 23.10 27.34 29.26 28.91 30.14 28.02 22.91 18.53 16.99 18.91 21.76 15.78 15.18 16.05 13.41 9.74 8.43 7.01 7.84 11.07 10.51 9.87 11.64 12.72 15.88 18.79 21.23
33.21 31.20 25.58 32.77 31.54 28.40 27.85 25.53 24.18 23.29 27.42 29.08 26.15 25.18 23.53 18.78 17.25 17.49 22.38 26.07 28.45 29.17 27.77 25.62 20.44 18.00 18.45 20.37 22.39 17.94 15.46 13.71 10.51 10.40 7.93 8.75 8.63 10.01 9.78 9.61 10.50 12.49 14.22 15.59 17.37
32.76 31.81 26.79 25.08 27.80 28.75 28.00 25.51 26.05 25.47 25.92 23.83 22.69 23.55 22.80 21.32 24.13 20.49 22.93 23.99 23.33 26.46 25.86 25.60 22.33 18.19 17.05 17.62 17.09 18.76 17.78 16.75 13.20 11.82 11.51 11.44 11.21 15.41 13.11 12.03 9.35 10.08 11.42 12.41 14.09
33.04 33.04 36.72 27.31 26.94 28.48 29.00 26.57 26.64 27.43 27.08 28.14 27.21 24.76 20.27 24.15 27.01 27.63 27.84 27.42 26.04 23.35 23.17 23.31 21.53 20.06 22.54 20.27 19.69 19.17 17.71 16.44 15.20 13.42 11.49 9.56 12.81 16.16 10.59 9.30 8.31 8.98 10.50 10.87 12.08
MSLP
1022.82 1022.45 1022.27 1021.81 1021.76 1021.29 1020.80 1020.42 1020.17 1019.88 1019.49 1019.26 1018.89 1018.56 1018.18 1017.95 1017.69 1017.33 1017.27 1017.69 1017.44 1017.14 1016.88 1016.41 1016.01 1015.83 1015.48 1015.26 1015.25 1015.18 1014.09 1012.39 1011.53 1011.45 1011.14 1011.94 1011.88 1011.90 1012.00 1011.45 1010.80 1010.31 1009.68 1009.78 1009.45
1022.69 1022.56 1022.28 1021.91 1021.57 1021.26 1020.78 1020.23 1019.99 1019.67 1019.35 1019.05 1018.83 1018.53 1018.41 1018.18 1017.79 1017.26 1017.48 1017.37 1017.27 1017.19 1016.92 1016.62 1016.28 1016.05 1015.48 1015.46 1015.24 1014.81 1013.97 1012.84 1013.12 1013.04 1012.65 1012.62 1012.70 1012.34 1012.16 1011.16 1010.61 1010.22 1009.71 1009.74 1009.91
1022.92 1022.30 1022.13 1021.90 1021.59 1021.16 1020.51 1020.11 1019.81 1019.41 1019.14 1018.93 1018.69 1018.42 1018.42 1018.26 1017.63 1017.51 1017.49 1017.40 1017.23 1017.31 1017.20 1017.11 1016.81 1016.44 1015.95 1015.78 1015.18 1014.76 1013.81 1013.36 1013.63 1013.64 1013.46 1013.10 1012.72 1012.75 1012.06 1010.24 1010.96 1010.37 1010.03 1009.77 1010.00
1022.94 1022.24 1022.20 1021.79 1021.46 1021.09 1020.37 1019.94 1019.60 1019.21 1018.93 1018.66 1018.41 1018.36 1018.50 1018.29 1018.05 1017.70 1017.68 1017.50 1017.43 1017.40 1017.22 1017.11 1016.79 1016.47 1016.38 1015.92 1015.52 1014.98 1014.11 1014.14 1013.92 1013.90 1013.80 1013.21 1013.09 1012.40 1011.99 1011.42 1011.31 1011.04 1010.53 1009.99 1009.75
1022.95 1022.31 1022.07 1021.89 1021.40 1020.83 1020.02 1019.66 1019.28 1018.86 1018.68 1018.42 1018.51 1018.33 1018.54 1018.00 1017.82 1017.82 1017.88 1017.64 1017.37 1017.22 1017.15 1017.18 1016.92 1016.55 1016.30 1016.09 1015.90 1015.23 1014.64 1014.55 1014.43 1014.01 1013.45 1013.43 1012.66 1011.88 1011.52 1011.56 1011.23 1010.66 1010.36 1009.79 1009.50
1023.04 1022.53 1022.02 1021.78 1021.27 1020.47 1019.88 1019.42 1018.91 1018.55 1018.41 1018.34 1018.53 1018.52 1018.41 1018.01 1018.06 1018.03 1017.92 1017.61 1017.34 1017.25 1017.18 1017.26 1016.88 1016.85 1016.55 1016.29 1016.08 1015.11 1015.05 1014.76 1014.42 1013.62 1013.08 1012.83 1011.91 1011.87 1011.28 1010.74 1010.44 1010.16 1009.57 1009.45 1008.92
1022.90 1022.48 1021.99 1021.61 1020.98 1020.26 1019.68 1019.24 1018.64 1018.49 1018.35 1018.39 1018.42 1018.40 1017.94 1018.60 1018.22 1018.16 1017.94 1017.67 1017.48 1017.32 1017.02 1016.94 1017.01 1017.10 1016.70 1016.29 1016.15 1015.95 1015.38 1014.54 1013.73 1012.98 1012.78 1012.57 1011.52 1010.65 1010.10 1009.77 1009.39 1009.17 1008.87 1008.91 1008.86
1022.77 1022.32 1021.95 1021.52 1020.83 1020.08 1019.57 1019.13 1018.65 1018.64 1018.72 1018.64 1018.52 1018.22 1017.99 1018.19 1018.26 1018.10 1017.98 1017.28 1017.05 1016.94 1016.98 1016.84 1017.09 1017.11 1017.03 1016.70 1016.32 1015.89 1015.20 1014.03 1012.99 1012.90 1012.48 1012.82 1010.32 1009.72 1009.69 1009.30 1008.80 1008.55 1008.30 1008.11 1008.38
1022.58 1022.25 1021.83 1021.52 1020.65 1019.98 1019.43 1018.93 1018.86 1018.76 1018.75 1018.75 1018.68 1018.09 1018.02 1018.07 1018.10 1018.22 1018.15 1017.47 1016.77 1016.71 1016.68 1016.87 1017.07 1017.08 1017.17 1016.75 1015.91 1015.48 1014.75 1013.91 1012.94 1012.44 1012.16 1012.10 1010.08 1009.38 1009.53 1009.23 1008.60 1008.30 1007.89 1007.60 1007.64
1022.55 1022.24 1021.83 1021.37 1020.59 1020.00 1019.33 1018.88 1018.99 1018.96 1019.04 1018.82 1018.73 1018.79 1018.39 1018.83 1018.65 1018.61 1018.09 1017.38 1016.95 1016.61 1016.60 1016.93 1017.04 1016.97 1016.90 1016.64 1015.98 1015.63 1015.20 1014.17 1012.89 1012.05 1011.73 1011.33 1010.17 1009.28 1009.04 1008.70 1008.14 1007.88 1007.67 1007.39 1007.03
1022.56 1022.19 1021.71 1021.21 1020.79 1020.18 1019.24 1019.05 1019.37 1019.78 1019.44 1020.29 1020.23 1019.88 1019.75 1019.46 1018.98 1018.69 1018.13 1017.20 1016.98 1016.85 1016.69 1017.15 1017.18 1016.65 1016.87 1016.97 1016.75 1016.34 1015.39 1013.83 1012.47 1011.85 1011.61 1010.80 1009.79 1008.94 1008.33 1008.05 1007.81 1007.72 1007.51 1007.22 1006.95
1022.47 1022.12 1021.63 1021.14 1020.75 1020.32 1019.94 1020.66 1021.79 1022.19 1021.25 1020.88 1020.66 1020.32 1020.03 1020.05 1019.61 1018.94 1018.75 1017.97 1017.63 1017.27 1017.37 1017.23 1017.07 1017.45 1017.37 1017.20 1016.58 1015.74 1014.70 1013.15 1012.15 1011.83 1011.60 1010.65 1009.53 1009.10 1009.05 1009.14 1008.86 1008.33 1007.91 1007.38 1007.06
1022.32 1022.04 1021.55 1021.06 1020.78 1020.90 1021.39 1022.25 1022.60 1022.38 1021.29 1020.92 1020.69 1020.43 1020.26 1020.23 1020.06 1019.65 1019.32 1018.73 1018.20 1017.86 1017.87 1017.88 1017.74 1017.67 1017.37 1016.72 1016.06 1015.10 1014.41 1013.22 1012.63 1012.16 1011.46 1010.48 1009.28 1009.45 1009.75 1009.68 1009.98 1009.97 1009.83 1009.06 1008.24
1022.17 1021.86 1021.42 1020.89 1021.01 1021.72 1021.99 1022.43 1022.59 1022.30 1021.33 1021.32 1020.56 1020.76 1020.48 1020.23 1020.34 1020.28 1019.68 1019.75 1018.76 1018.68 1018.41 1018.02 1017.75 1017.53 1017.09 1016.69 1016.29 1014.92 1014.09 1013.81 1012.94 1012.49 1011.13 1010.59 1009.78 1010.24 1010.64 1010.56 1010.91 1011.06 1010.55 1009.82 1008.93
1022.16 1021.76 1021.44 1021.05 1021.62 1021.89 1022.57 1022.40 1022.39 1022.23 1021.49 1021.38 1021.00 1020.98 1020.95 1020.97 1021.69 1020.11 1020.42 1019.75 1019.70 1019.58 1019.66 1018.52 1018.22 1017.89 1017.39 1016.78 1016.17 1015.32 1014.42 1013.09 1012.20 1011.93 1011.66 1010.60 1011.32 1012.05 1012.36 1012.30 1012.59 1011.98 1011.23 1010.37 1009.23
1022.04 1021.73 1021.44 1021.54 1021.80 1022.56 1022.59 1022.40 1022.20 1021.83 1021.89 1021.75 1021.59 1021.71 1021.39 1021.75 1021.85 1021.42 1021.08 1020.86 1020.41 1020.08 1019.72 1019.59 1018.85 1018.29 1017.82 1017.04 1016.25 1015.70 1014.20 1012.27 1011.53 1011.54 1011.34 1011.27 1011.83 1014.04 1015.12 1016.25 1014.65 1013.85 1011.97 1010.44 1008.88
1021.87 1021.61 1021.43 1021.86 1022.27 1022.61 1022.64 1022.24 1022.11 1022.43 1023.00 1022.96 1022.74 1022.64 1022.69 1022.33 1022.08 1022.17 1021.74 1021.30 1021.52 1020.91 1020.18 1019.58 1018.49 1018.34 1018.25 1017.42 1016.16 1016.18 1014.83 1013.31 1012.59 1011.99 1011.97 1012.53 1012.91 1015.82 1017.36 1017.87 1017.53 1015.68 1012.14 1008.56 1008.26
1021.61 1021.60 1021.83 1022.05 1022.35 1022.56 1022.44 1021.78 1022.57 1024.37 1024.37 1024.18 1024.06 1023.48 1023.56 1023.64 1023.19 1023.02 1022.57 1022.21 1022.47 1022.56 1021.81 1020.73 1018.84 1018.97 1018.92 1018.94 1018.60 1017.03 1017.34 1016.70 1015.82 1014.70 1013.99 1013.54 1015.27 1016.81 1018.38 1019.44 1018.74 1016.22 1011.81 1009.59 1008.59
1021.51 1021.75 1021.79 1022.05 1022.26 1022.44 1022.18 1022.97 1024.24 1024.68 1025.24 1025.13 1024.80 1024.67 1024.56 1024.41 1024.48 1023.65 1023.53 1023.44 1023.40 1023.39 1023.22 1022.15 1020.53 1019.56 1019.69 1019.65 1019.50 1018.28 1018.25 1018.64 1017.75 1016.40 1015.60 1016.09 1017.23 1017.43 1019.41 1018.75 1018.19 1017.12 1013.75 1011.96 1010.68
1021.50 1021.72 1021.79 1022.20 1022.24 1022.08 1022.18 1024.38 1025.29 1025.62 1025.66 1025.91 1025.85 1026.44 1026.11 1025.51 1025.07 1024.36 1023.86 1024.12 1023.96 1023.87 1023.95 1023.36 1021.96 1020.24 1019.96 1020.26 1020.14 1019.85 1020.04 1019.19 1018.45 1017.72 1017.17 1017.83 1019.83 1021.90 1021.88 1021.95 1020.55 1018.67 1016.66 1014.39 1012.85
1021.51 1021.61 1021.94 1022.24 1022.04 1022.10 1023.94 1025.65 1025.93 1026.08 1026.25 1026.43 1026.61 1026.97 1027.01 1026.90 1026.29 1025.69 1024.78 1024.30 1024.26 1023.91 1023.77 1023.31 1023.09 1020.59 1020.30 1021.03 1021.05 1020.44 1020.87 1020.68 1020.40 1019.91 1019.77 1019.99 1022.33 1024.99 1025.37 1025.10 1023.87 1021.86 1019.54 1017.02 1015.39
1021.53 1022.00 1022.08 1022.22 1022.52 1024.52 1025.30 1025.96 1026.29 1026.13 1026.51 1026.55 1026.79 1027.18 1027.46 1027.70 1027.38 1026.46 1025.45 1024.86 1024.66 1024.43 1023.70 1023.45 1023.00 1021.70 1021.67 1021.86 1021.97 1022.99 1022.88 1022.33 1021.52 1021.98 1022.10 1022.45 1024.06 1025.80 1026.61 1026.52 1025.57 1023.93 1021.89 1019.55 1017.86
1021.76 1022.10 1021.99 1022.04 1023.13 1024.90 1026.10 1026.16 1026.39 1026.21 1026.53 1026.54 1026.76 1027.30 1028.04 1028.21 1028.18 1027.20 1025.72 1024.85 1024.84 1024.57 1024.38 1024.03 1023.35 1022.18 1021.48 1021.73 1021.93 1022.59 1023.54 1023.51 1023.22 1023.49 1024.56 1024.41 1024.87 1026.38 1027.45 1027.30 1026.49 1025.56 1023.58 1021.70 1020.19
1022.22 1022.71 1022.69 1023.12 1024.25 1024.28 1025.51 1026.16 1026.50 1026.37 1026.49 1026.60 1026.74 1027.38 1028.04 1028.26 1028.34 1027.63 1026.14 1025.00 1024.93 1025.00 1024.67 1024.58 1024.38 1024.49 1024.63 1024.83 1024.80 1024.43 1024.71 1024.51 1024.39 1025.18 1026.02 1026.91 1027.41 1027.64 1028.37 1028.03 1027.30 1027.01 1025.34 1023.93 1022.57
1022.65 1023.83 1024.47 1024.44 1024.63 1024.58 1024.95 1025.43 1025.88 1026.08 1026.40 1026.65 1026.87 1027.31 1027.48 1027.94 1028.12 1027.78 1026.64 1025.34 1024.98 1025.09 1024.88 1024.97 1024.81 1024.95 1025.12 1025.26 1025.09 1025.57 1025.76 1026.09 1026.29 1027.27 1027.12 1028.60 1028.92 1029.49 1030.04 1029.61 1029.19 1029.26 1027.26 1025.66 1024.72
1022.30 1023.44 1024.64 1024.62 1024.65 1024.49 1024.83 1025.07 1025.07 1025.49 1025.78 1026.48 1026.82 1027.09 1027.50 1027.54 1027.30 1027.19 1026.88 1026.19 1025.97 1025.43 1025.18 1025.40 1025.03 1024.97 1024.69 1024.77 1024.94 1025.23 1025.97 1026.43 1027.32 1028.00 1028.22 1029.38 1029.80 1030.17 1030.86 1030.96 1030.03 1029.54 1029.13 1027.77 1026.57
1022.19 1022.50 1022.50 1024.40 1024.58 1024.41 1024.13 1024.40 1024.62 1025.03 1025.50 1025.66 1026.16 1026.83 1027.41 1027.17 1027.03 1026.88 1026.78 1026.65 1026.54 1026.51 1025.88 1025.50 1025.15 1024.56 1024.12 1023.81 1023.92 1024.05 1026.32 1027.41 1028.21 1028.92 1029.57 1030.20 1030.90 1030.67 1031.00 1031.83 1031.64 1031.25 1030.34 1029.34 1028.53
Wind_Speed
8 9 11 11 13 13 14 14 15 14 14 14 13 13 13 11 10 2 3 4 5 9 6 8 6 10 1 2 1 1 7 13 21 17 15 1 6 4 4 11 14 10 13 12 18
8 10 12 13 13 15 15 15 15 14 15 14 13 12 11 10 2 4 2 3 6 8 6 9 9 8 4 2 2 5 6 13 10 11 13 11 12 12 10 15 17 18 21 13 13
9 11 12 13 15 16 16 17 15 15 15 17 12 10 9 4 2 3 2 4 6 5 2 2 2 3 3 3 5 4 12 14 14 12 14 17 19 17 18 26 16 19 19 20 16
10 11 13 14 15 17 17 17 16 17 18 14 7 7 6 2 1 1 5 7 7 6 3 4 2 3 4 6 6 10 15 15 15 13 13 19 20 20 19 21 20 21 22 24 21
10 12 13 15 17 18 18 17 17 18 14 8 4 3 2 2 3 2 7 7 7 2 6 6 7 4 7 5 7 16 15 14 15 18 21 18 21 25 23 21 21 23 22 24 23
11 12 14 16 18 19 19 17 18 13 7 4 2 0 3 3 3 3 7 8 5 5 4 4 5 5 10 11 11 4 6 12 14 20 22 24 24 22 20 22 22 21 23 22 22
11 13 15 17 19 21 19 18 15 6 4 2 2 2 4 5 3 6 6 6 5 7 8 6 7 6 2 8 9 10 15 16 19 22 16 11 16 17 16 14 16 18 19 19 20
11 13 15 18 20 21 19 19 5 3 3 2 1 2 4 0 4 11 8 7 10 9 7 7 5 6 6 7 9 12 11 8 1 7 11 6 18 19 17 17 19 18 18 16 14
11 13 15 18 19 19 21 8 5 5 2 1 3 2 4 1 10 8 4 15 16 2 2 1 1 3 2 7 10 6 10 14 17 5 11 13 16 13 11 16 20 18 16 15 14
12 14 16 18 16 18 16 3 7 2 3 2 1 2 3 9 8 7 8 15 4 8 3 1 1 5 5 6 8 15 19 20 19 7 11 19 26 27 22 19 21 20 20 19 18
12 14 16 17 12 15 7 1 2 2 8 6 2 2 6 9 4 11 9 15 6 2 7 4 5 5 8 9 13 16 17 21 23 19 14 17 21 23 20 16 17 18 18 19 20
11 14 16 17 5 12 5 7 1 3 3 1 1 4 4 3 5 14 15 10 6 8 8 5 3 9 13 10 14 17 20 23 13 3 13 16 21 17 12 14 15 12 14 15 16
11 13 16 18 4 5 8 4 4 4 0 3 2 3 5 4 3 11 15 8 6 9 13 5 7 10 8 10 16 18 19 17 17 20 20 18 13 6 5 9 15 16 14 13 12
10 13 15 15 0 1 3 3 4 3 2 10 6 5 6 4 1 4 10 6 4 8 9 2 5 9 12 13 19 18 12 24 24 16 7 3 3 12 15 14 21 21 19 17 16
8 11 12 11 1 3 5 3 3 3 4 10 5 4 7 8 10 14 9 6 7 13 4 6 9 11 11 17 22 13 28 25 23 16 10 7 7 6 16 25 30 28 27 23 18
7 9 6 1 2 2 4 2 2 1 4 6 5 10 11 6 4 9 10 11 2 6 5 5 8 4 7 18 17 23 21 13 2 4 4 1 4 6 12 24 29 28 29 25 18
7 7 2 1 3 2 2 3 3 8 4 10 6 9 9 9 5 10 11 15 14 10 13 11 5 8 7 16 13 18 20 5 3 4 5 11 3 6 19 26 21 30 33 11 5
7 3 3 2 2 3 2 1 9 2 3 2 7 10 6 10 4 11 12 14 11 12 8 7 5 9 12 12 20 18 11 5 5 6 6 7 9 4 23 22 20 26 18 13 9
2 2 1 2 2 2 1 6 2 4 1 5 6 4 6 4 6 10 10 10 8 11 8 8 5 6 9 8 21 13 13 7 5 6 4 5 7 2 29 31 33 29 22 19 18
1 1 0 5 3 1 5 3 2 1 2 1 5 3 4 8 10 13 12 4 10 13 6 3 8 4 4 6 15 9 11 2 3 6 6 5 6 11 28 29 31 31 28 21 19
2 1 2 2 1 3 4 2 3 3 1 2 2 1 4 5 4 5 7 6 8 13 6 4 2 9 4 13 20 15 10 5 2 5 4 5 5 10 17 18 24 25 24 20 19
2 2 2 2 4 1 3 4 3 3 2 2 2 2 3 2 4 4 4 3 10 11 9 3 4 6 3 4 17 22 13 6 4 5 4 4 5 13 16 17 19 22 21 20 19
2 1 2 3 3 2 0 1 1 3 3 4 3 3 1 1 3 4 3 3 8 10 10 8 4 7 3 3 11 16 22 15 1 1 9 5 4 15 18 19 19 20 21 19 19
2 1 3 5 2 5 4 2 2 1 1 1 3 2 2 1 2 5 4 3 8 9 8 1 3 4 8 5 7 16 21 21 9 5 4 5 15 20 21 20 20 22 22 19 17
3 1 1 2 1 4 2 3 3 3 1 2 2 4 2 1 1 4 4 6 0 8 5 3 5 2 1 4 10 14 14 17 16 9 5 9 10 17 16 18 17 16 19 19 19
5 5 0 2 2 4 1 5 4 3 6 3 3 3 4 4 4 3 3 2 2 7 6 4 1 1 3 3 6 16 16 13 11 8 3 7 7 12 11 12 18 19 17 17 17
2 1 1 1 3 3 4 6 5 5 3 1 4 5 3 6 4 6 5 6 5 4 5 6 3 3 5 3 5 7 13 14 8 9 4 9 6 9 11 15 15 15 15 16 15
Wind_Direction
6 2 357 353 342 340 337 337 333 326 325 320 321 327 333 335 330 123 48 29 344 350 351 344 352 0 21 60 82 176 245 258 259 275 276 313 286 280 290 275 283 265 279 294 307
6 358 353 348 341 336 335 334 329 321 319 318 322 330 339 345 348 78 73 304 345 16 359 3 357 358 341 318 194 227 245 268 314 286 290 300 290 299 280 274 261 267 280 275 286
355 359 351 344 338 334 333 331 325 320 317 318 318 330 335 326 179 53 310 309 341 27 13 329 319 349 304 261 196 195 244 270 263 266 280 283 274 275 269 264 274 277 284 292 292
352 357 345 340 335 331 335 330 324 322 324 323 323 337 339 244 67 293 334 320 339 320 292 300 230 279 255 246 221 249 241 252 266 270 264 266 289 272 261 277 293 287 282 284 286
348 353 343 336 334 331 333 328 326 328 328 342 338 355 227 132 89 21 351 331 312 322 306 289 268 261 256 247 260 250 263 268 273 269 267 277 262 266 274 285 274 268 269 274 277
346 348 344 338 334 331 330 329 329 334 350 31 347 87 241 78 5 354 335 316 317 306 277 248 276 285 283 260 253 280 269 278 274 268 273 274 274 276 272 265 270 267 267 264 265
347 348 345 338 335 330 329 331 336 352 59 56 92 271 88 67 310 339 346 327 303 280 279 262 260 236 295 271 284 282 281 277 267 267 274 289 264 246 266 272 273 271 270 266 264
345 347 345 340 336 330 330 336 13 53 41 91 38 246 89 294 327 352 333 337 319 274 256 283 236 260 256 290 276 280 271 284 152 285 271 252 277 271 277 272 271 271 269 265 259
345 347 345 342 340 330 333 354 17 54 91 224 268 312 79 178 349 339 311 331 320 120 231 145 200 263 231 271 284 220 296 301 302 293 273 247 283 279 284 274 280 275 274 263 250
347 347 344 344 348 333 347 45 43 35 350 256 149 225 67 338 323 330 336 324 308 327 110 119 264 267 246 281 298 311 305 295 289 271 285 273 275 283 282 276 272 268 267 262 264
348 344 342 346 359 350 359 174 34 176 39 38 61 0 318 328 305 354 339 330 349 1 5 28 290 302 354 320 296 293 284 283 282 289 284 281 285 291 302 293 279 270 266 263 268
344 342 341 345 37 11 27 58 25 318 117 73 254 278 265 331 311 355 347 4 351 347 349 332 24 8 333 316 290 286 296 292 286 272 293 294 293 306 28 35 16 348 309 276 273
340 344 341 345 119 46 63 74 302 194 335 53 18 346 330 352 337 344 355 346 347 350 349 318 335 342 298 325 329 308 297 291 298 310 290 271 261 60 30 25 11 7 347 330 318
341 346 346 343 174 28 64 347 263 204 123 354 356 26 331 349 128 339 9 7 345 341 341 311 321 324 333 328 337 308 317 307 293 296 276 11 290 54 356 354 352 345 340 326 312
338 346 358 29 349 37 345 324 181 234 53 351 351 342 353 45 317 5 354 1 348 334 298 352 317 327 325 342 328 300 308 302 289 271 264 237 224 46 14 353 343 336 329 316 306
331 347 357 65 72 55 326 156 199 351 11 5 343 357 2 25 9 321 359 2 249 327 312 302 296 269 329 333 328 340 317 309 347 192 187 201 258 51 16 346 335 332 318 307 290
324 352 61 111 17 5 182 219 22 74 13 327 333 341 343 337 348 4 357 21 28 346 5 329 283 338 307 327 341 354 350 4 54 11 39 7 33 62 5 352 338 326 315 327 275
335 67 51 70 15 147 214 342 59 102 282 351 332 324 357 354 16 346 2 12 32 4 316 342 350 11 347 24 341 351 12 15 2 357 330 350 8 79 7 341 335 338 332 52 65
60 47 122 46 77 167 274 46 179 181 266 312 295 22 333 6 350 348 10 3 11 5 360 336 296 332 41 27 12 340 4 313 260 222 248 20 10 164 349 346 350 346 360 25 31
33 314 79 349 127 202 70 122 142 106 183 74 34 32 315 328 348 3 358 23 355 5 355 333 290 18 35 341 28 5 353 354 3 11 9 35 51 346 346 341 337 347 350 12 20
73 34 97 16 188 47 84 128 202 201 193 55 119 290 270 314 333 332 318 322 1 343 336 305 223 327 2 22 20 11 13 344 278 7 347 330 63 2 345 341 333 339 345 6 17
116 30 70 227 52 16 95 166 191 150 170 138 120 206 247 359 296 296 317 276 0 340 333 337 295 309 20 198 34 32 8 347 337 19 18 295 77 19 356 348 343 343 350 5 16
109 268 82 263 114 86 65 128 255 147 186 178 145 216 83 224 313 263 290 302 354 2 355 346 10 325 152 187 38 25 15 18 77 31 25 334 26 10 358 355 350 356 358 6 15
114 64 352 55 36 118 142 145 170 306 182 201 116 168 164 154 207 299 290 294 344 353 5 329 46 36 47 42 348 14 22 25 41 47 333 24 321 348 359 350 351 359 1 8 15
20 135 352 150 77 105 105 141 156 182 230 230 153 241 183 200 263 244 276 305 331 2 20 39 39 82 198 287 50 43 28 27 47 25 29 341 5 358 356 346 352 4 4 8 19
140 152 150 103 122 127 177 194 186 174 160 215 194 173 197 204 216 258 297 329 352 330 10 4 68 192 141 271 254 47 31 34 43 20 21 359 39 354 359 2 8 3 2 11 15
143 93 160 111 126 156 191 169 196 160 209 189 176 163 217 246 240 264 275 283 274 303 330 348 333 358 42 27 196 24 19 30 61 32 315 38 340 341 11 28 7 354 2 14 10